,,,PA_Meas_PMT16A,,PR_Meas_QMR101_102,,RH_Meas_QMH101,,SR_Meas_QMS101,,TA_Meas_QMH101,,GenWind,,GenWind,
date,time,status,PA,status,PR,status,RH,status,SR,status,TA,status,DirAvg,status,SpdAvg,
2011-12-18, 00:00:04,VALID,998.833,VALID,0,VALID,92.8601,VALID,0,VALID,24.2086,VALID,94,VALID,0.353906,
2011-12-18, 00:01:04,VALID,998.839,VALID,0,VALID,92.8372,VALID,0,VALID,24.15,VALID,94,VALID,0.00820312,
2011-12-18, 00:02:04,VALID,998.827,VALID,0,VALID,92.8448,VALID,0,VALID,24.1305,VALID,94,VALID,0,
2011-12-18, 00:03:04,VALID,998.816,VALID,0,VALID,92.8983,VALID,0,VALID,24.111,VALID,94,VALID,0,
2011-12-18, 00:04:04,VALID,998.833,VALID,0,VALID,92.944,VALID,0,VALID,24.111,VALID,94,VALID,0,
2011-12-18, 00:05:04,VALID,998.85,VALID,0,VALID,93.0356,VALID,0,VALID,24.111,VALID,94,VALID,0,
2011-12-18, 00:06:04,VALID,998.813,VALID,0,VALID,93.1195,VALID,0,VALID,24.111,VALID,95,VALID,0,
2011-12-18, 00:07:04,VALID,998.855,VALID,0,VALID,93.1882,VALID,0,VALID,24.1714,VALID,94,VALID,0,
2011-12-18, 00:08:04,VALID,998.821,VALID,0,VALID,93.2416,VALID,0,VALID,24.1696,VALID,95,VALID,0.0140625,
2011-12-18, 00:09:04,VALID,998.808,VALID,0,VALID,93.295,VALID,0,VALID,24.1696,VALID,95,VALID,0.405469,
2011-12-18, 00:10:04,VALID,998.808,VALID,0,VALID,93.3255,VALID,0,VALID,24.1872,VALID,95,VALID,0.280469,
2011-12-18, 00:11:04,VALID,998.784,VALID,0,VALID,93.3179,VALID,0,VALID,24.1872,VALID,166,VALID,1.05352,
2011-12-18, 00:12:04,VALID,998.791,VALID,0,VALID,93.2416,VALID,0.104696,VALID,24.2067,VALID,151,VALID,0.996484,
2011-12-18, 00:13:04,VALID,998.775,VALID,0,VALID,93.15,VALID,0,VALID,24.2067,VALID,151,VALID,0.751953,
2011-12-18, 00:14:04,VALID,998.783,VALID,0,VALID,93.028,VALID,0.104696,VALID,24.2458,VALID,151,VALID,0.388281,
2011-12-18, 00:15:04,VALID,998.781,VALID,0,VALID,92.8601,VALID,0.104696,VALID,24.2458,VALID,151,VALID,0.112109,
2011-12-18, 00:16:04,VALID,998.792,VALID,0,VALID,92.6923,VALID,0,VALID,24.2458,VALID,151,VALID,0.0230469,
2011-12-18, 00:17:04,VALID,998.787,VALID,0,VALID,92.6083,VALID,0,VALID,24.2263,VALID,151,VALID,0.289453,
2011-12-18, 00:18:04,VALID,998.776,VALID,0,VALID,92.5778,VALID,0.104696,VALID,24.2458,VALID,151,VALID,0,
2011-12-18, 00:19:04,VALID,998.759,VALID,0,VALID,92.5702,VALID,0.104696,VALID,24.2263,VALID,151,VALID,0,
2011-12-18, 00:20:04,VALID,998.754,VALID,0,VALID,92.5854,VALID,0,VALID,24.2263,VALID,151,VALID,0,
2011-12-18, 00:21:04,VALID,998.75,VALID,0,VALID,92.5473,VALID,0,VALID,24.2263,VALID,151,VALID,0.392578,
2011-12-18, 00:22:04,VALID,998.748,VALID,0,VALID,92.5397,VALID,0.104696,VALID,24.2067,VALID,151,VALID,0.444922,
2011-12-18, 00:23:04,VALID,998.715,VALID,0,VALID,92.5015,VALID,0.104696,VALID,24.2067,VALID,151,VALID,0.378125,
2011-12-18, 00:24:04,VALID,998.741,VALID,0,VALID,92.5549,VALID,0,VALID,24.2476,VALID,151,VALID,0.630469,
2011-12-18, 00:25:04,VALID,998.692,VALID,0,VALID,92.5397,VALID,0,VALID,24.2476,VALID,148,VALID,0.776953,
2011-12-18, 00:26:04,VALID,998.691,VALID,0,VALID,92.4634,VALID,0,VALID,24.2671,VALID,144,VALID,0.710156,
2011-12-18, 00:27:04,VALID,998.665,VALID,0,VALID,92.3642,VALID,0,VALID,24.2866,VALID,144,VALID,0.578516,
2011-12-18, 00:28:04,VALID,998.648,VALID,0,VALID,92.2574,VALID,0,VALID,24.3062,VALID,144,VALID,0.866797,
2011-12-18, 00:29:04,VALID,998.641,VALID,0,VALID,92.1734,VALID,0,VALID,24.3257,VALID,144,VALID,1.04609,
2011-12-18, 00:30:04,VALID,998.645,VALID,0,VALID,92.0285,VALID,0,VALID,24.3452,VALID,144,VALID,1.32383,
2011-12-18, 00:31:04,VALID,998.632,VALID,0,VALID,91.8911,VALID,0,VALID,24.3647,VALID,143,VALID,1.35703,
2011-12-18, 00:32:04,VALID,998.643,VALID,0,VALID,91.7614,VALID,0,VALID,24.3647,VALID,140,VALID,1.24453,
2011-12-18, 00:33:04,VALID,998.628,VALID,0,VALID,91.708,VALID,0,VALID,24.3842,VALID,140,VALID,1.17656,
2011-12-18, 00:34:04,VALID,998.584,VALID,0,VALID,91.7004,VALID,0,VALID,24.3842,VALID,138,VALID,1.08945,
2011-12-18, 00:35:04,VALID,998.58,VALID,0,VALID,91.6851,VALID,0,VALID,24.3842,VALID,133,VALID,1.03672,
2011-12-18, 00:36:04,VALID,998.566,VALID,0,VALID,91.6546,VALID,0,VALID,24.3647,VALID,132,VALID,0.982813,
2011-12-18, 00:37:04,VALID,998.547,VALID,0,VALID,91.6165,VALID,0,VALID,24.3842,VALID,132,VALID,0.754297,
2011-12-18, 00:38:04,VALID,998.545,VALID,0,VALID,91.6088,VALID,0,VALID,24.3452,VALID,132,VALID,0.680469,
2011-12-18, 00:39:04,VALID,998.507,VALID,0,VALID,91.6012,VALID,0,VALID,24.3452,VALID,146,VALID,0.816406,
2011-12-18, 00:40:04,VALID,998.495,VALID,0,VALID,91.5631,VALID,0,VALID,24.3452,VALID,159,VALID,0.783984,
2011-12-18, 00:41:04,VALID,998.509,VALID,0,VALID,91.5554,VALID,0,VALID,24.3452,VALID,159,VALID,1.04609,
2011-12-18, 00:42:04,VALID,998.478,VALID,0,VALID,91.5249,VALID,0,VALID,24.3647,VALID,166,VALID,1.44922,
2011-12-18, 00:43:04,VALID,998.453,VALID,0,VALID,91.4639,VALID,0,VALID,24.3842,VALID,168,VALID,1.44687,
2011-12-18, 00:44:04,VALID,998.419,VALID,0,VALID,91.2808,VALID,0,VALID,24.4037,VALID,170,VALID,1.42813,
2011-12-18, 00:45:04,VALID,998.408,VALID,0,VALID,90.9985,VALID,0,VALID,24.4428,VALID,158,VALID,1.43477,
2011-12-18, 00:46:04,VALID,998.405,VALID,0,VALID,90.7314,VALID,0,VALID,24.4623,VALID,158,VALID,0.892578,
2011-12-18, 00:47:04,VALID,998.336,VALID,0,VALID,90.5254,VALID,0,VALID,24.4818,VALID,145,VALID,1.10234,
2011-12-18, 00:48:04,VALID,998.336,VALID,0,VALID,90.3652,VALID,0,VALID,24.5013,VALID,142,VALID,1.39922,
2011-12-18, 00:49:04,VALID,998.32,VALID,0,VALID,90.1897,VALID,0,VALID,24.5209,VALID,146,VALID,0.979688,
2011-12-18, 00:50:04,VALID,998.294,VALID,0,VALID,90.1745,VALID,0,VALID,24.5013,VALID,165,VALID,1.31641,
2011-12-18, 00:51:04,VALID,998.259,VALID,0,VALID,90.1974,VALID,0,VALID,24.5013,VALID,155,VALID,1.16914,
2011-12-18, 00:52:04,VALID,998.23,VALID,0,VALID,90.2508,VALID,0,VALID,24.5032,VALID,146,VALID,0.9875,
2011-12-18, 00:53:04,VALID,998.21,VALID,0,VALID,90.2966,VALID,0,VALID,24.4818,VALID,146,VALID,0.779297,
2011-12-18, 00:54:04,VALID,998.174,VALID,0,VALID,90.3805,VALID,0,VALID,24.4623,VALID,147,VALID,0.683984,
2011-12-18, 00:55:04,VALID,998.124,VALID,0,VALID,90.4339,VALID,0,VALID,24.4428,VALID,147,VALID,0.471875,
2011-12-18, 00:56:04,VALID,998.103,VALID,0,VALID,90.5102,VALID,0,VALID,24.4233,VALID,147,VALID,0.364062,
2011-12-18, 00:57:04,VALID,998.105,VALID,0,VALID,90.5941,VALID,0,VALID,24.4037,VALID,147,VALID,0.317969,
2011-12-18, 00:58:04,VALID,998.039,VALID,0,VALID,90.5941,VALID,0,VALID,24.3842,VALID,147,VALID,0.226563,
2011-12-18, 00:59:04,VALID,998.059,VALID,0,VALID,90.6628,VALID,0,VALID,24.3452,VALID,147,VALID,0.358203,
2011-12-18, 01:00:04,VALID,998.022,VALID,0,VALID,90.7925,VALID,0,VALID,24.3257,VALID,146,VALID,0.545703,
2011-12-18, 01:01:04,VALID,998.05,VALID,0,VALID,90.9451,VALID,0,VALID,24.3062,VALID,145,VALID,0.675391,
2011-12-18, 01:02:04,VALID,998.036,VALID,0,VALID,90.9222,VALID,0,VALID,24.2476,VALID,145,VALID,0.357422,
2011-12-18, 01:03:04,VALID,998.025,VALID,0,VALID,90.8993,VALID,0,VALID,24.1872,VALID,145,VALID,0.228906,
2011-12-18, 01:04:04,VALID,998.006,VALID,0,VALID,91.174,VALID,0,VALID,24.2086,VALID,145,VALID,0.309766,
2011-12-18, 01:05:04,VALID,997.994,VALID,0,VALID,91.3647,VALID,0,VALID,24.2086,VALID,145,VALID,0.421484,
2011-12-18, 01:06:04,VALID,997.979,VALID,0,VALID,91.5402,VALID,0,VALID,24.2086,VALID,145,VALID,0.238672,
2011-12-18, 01:07:04,VALID,997.994,VALID,0,VALID,91.6851,VALID,0,VALID,24.2476,VALID,145,VALID,0.323438,
2011-12-18, 01:08:04,VALID,997.951,VALID,0,VALID,91.7157,VALID,0,VALID,24.2671,VALID,145,VALID,0,
2011-12-18, 01:09:04,VALID,997.943,VALID,0,VALID,91.7385,VALID,0,VALID,24.308,VALID,145,VALID,0,
2011-12-18, 01:10:04,VALID,997.934,VALID,0,VALID,91.7157,VALID,0,VALID,24.2671,VALID,132,VALID,0.823828,
2011-12-18, 01:11:04,VALID,997.948,VALID,0,VALID,91.6623,VALID,0,VALID,24.2476,VALID,126,VALID,1.00937,
2011-12-18, 01:12:04,VALID,997.926,VALID,0,VALID,91.792,VALID,0,VALID,24.2086,VALID,125,VALID,0.989844,
2011-12-18, 01:13:04,VALID,997.934,VALID,0,VALID,91.8377,VALID,0,VALID,24.2086,VALID,111,VALID,0.964844,
2011-12-18, 01:14:04,VALID,997.952,VALID,0,VALID,91.8301,VALID,0,VALID,24.1891,VALID,103,VALID,1.01211,
2011-12-18, 01:15:04,VALID,997.944,VALID,0,VALID,91.8225,VALID,0,VALID,24.1891,VALID,103,VALID,0.953516,
2011-12-18, 01:16:04,VALID,997.927,VALID,0,VALID,91.8377,VALID,0,VALID,24.1696,VALID,103,VALID,0.873438,
2011-12-18, 01:17:04,VALID,997.959,VALID,0,VALID,91.7996,VALID,0,VALID,24.15,VALID,103,VALID,0.7625,
2011-12-18, 01:18:04,VALID,997.955,VALID,0,VALID,91.7691,VALID,0,VALID,24.15,VALID,103,VALID,0.6125,
2011-12-18, 01:19:04,VALID,997.966,VALID,0,VALID,91.7767,VALID,0,VALID,24.1305,VALID,103,VALID,0.659375,
2011-12-18, 01:20:04,VALID,997.93,VALID,0,VALID,91.8835,VALID,0,VALID,24.0915,VALID,103,VALID,0.716797,
2011-12-18, 01:21:04,VALID,997.919,VALID,0,VALID,91.9598,VALID,0,VALID,24.0915,VALID,103,VALID,0.778906,
2011-12-18, 01:22:04,VALID,997.91,VALID,0,VALID,92.0361,VALID,0,VALID,24.072,VALID,103,VALID,0.580859,
2011-12-18, 01:23:04,VALID,997.881,VALID,0,VALID,92.0743,VALID,0,VALID,24.0738,VALID,103,VALID,0.596094,
2011-12-18, 01:24:04,VALID,997.9,VALID,0,VALID,92.1277,VALID,0,VALID,24.0329,VALID,103,VALID,0.543359,
2011-12-18, 01:25:04,VALID,997.894,VALID,0,VALID,92.1734,VALID,0,VALID,24.0116,VALID,103,VALID,0.476172,
2011-12-18, 01:26:04,VALID,997.899,VALID,0,VALID,92.2268,VALID,0,VALID,23.9921,VALID,103,VALID,0.519141,
2011-12-18, 01:27:04,VALID,997.906,VALID,0,VALID,92.2803,VALID,0,VALID,23.9726,VALID,103,VALID,0.444531,
2011-12-18, 01:28:04,VALID,997.891,VALID,0,VALID,92.3413,VALID,0,VALID,23.9726,VALID,103,VALID,0.446094,
2011-12-18, 01:29:04,VALID,997.891,VALID,0,VALID,92.3947,VALID,0,VALID,23.9726,VALID,103,VALID,0.3375,
2011-12-18, 01:30:04,VALID,997.857,VALID,0,VALID,92.41,VALID,0,VALID,23.9531,VALID,103,VALID,0.177734,
2011-12-18, 01:31:04,VALID,997.879,VALID,0,VALID,92.41,VALID,0,VALID,23.9531,VALID,103,VALID,0.270312,
2011-12-18, 01:32:04,VALID,997.841,VALID,0,VALID,92.41,VALID,0,VALID,23.9336,VALID,103,VALID,0.242578,
2011-12-18, 01:33:04,VALID,997.837,VALID,0,VALID,92.3794,VALID,0,VALID,23.9549,VALID,103,VALID,0.23125,
2011-12-18, 01:34:04,VALID,997.843,VALID,0,VALID,92.41,VALID,0,VALID,23.914,VALID,103,VALID,0.376563,
2011-12-18, 01:35:04,VALID,997.853,VALID,0,VALID,92.4634,VALID,0,VALID,23.914,VALID,103,VALID,0.418359,
2011-12-18, 01:36:04,VALID,997.819,VALID,0,VALID,92.532,VALID,0,VALID,23.914,VALID,103,VALID,0.300391,
2011-12-18, 01:37:04,VALID,997.861,VALID,0,VALID,92.5626,VALID,0,VALID,23.914,VALID,103,VALID,0,
2011-12-18, 01:38:04,VALID,997.859,VALID,0,VALID,92.5549,VALID,0,VALID,23.9354,VALID,103,VALID,0.173828,
2011-12-18, 01:39:04,VALID,997.86,VALID,0,VALID,92.5702,VALID,0,VALID,23.914,VALID,103,VALID,0,
2011-12-18, 01:40:04,VALID,997.88,VALID,0,VALID,92.5702,VALID,0,VALID,23.9159,VALID,103,VALID,0.125391,
2011-12-18, 01:41:04,VALID,997.844,VALID,0,VALID,92.6083,VALID,0,VALID,23.9159,VALID,103,VALID,0.285937,
2011-12-18, 01:42:04,VALID,997.862,VALID,0,VALID,92.6541,VALID,0,VALID,23.8963,VALID,103,VALID,0.287109,
2011-12-18, 01:43:04,VALID,997.835,VALID,0,VALID,92.677,VALID,0,VALID,23.8963,VALID,103,VALID,0,
2011-12-18, 01:44:04,VALID,997.839,VALID,0,VALID,92.6694,VALID,0,VALID,23.8768,VALID,103,VALID,0,
2011-12-18, 01:45:04,VALID,997.829,VALID,0,VALID,92.7609,VALID,0,VALID,23.8768,VALID,103,VALID,0,
2011-12-18, 01:46:04,VALID,997.839,VALID,0,VALID,92.7914,VALID,0,VALID,23.8768,VALID,103,VALID,0,
2011-12-18, 01:47:04,VALID,997.814,VALID,0,VALID,92.822,VALID,0,VALID,23.8768,VALID,103,VALID,0,
2011-12-18, 01:48:04,VALID,997.846,VALID,0,VALID,92.8601,VALID,0,VALID,23.8573,VALID,103,VALID,0,
2011-12-18, 01:49:04,VALID,997.827,VALID,0,VALID,92.8754,VALID,0,VALID,23.8378,VALID,103,VALID,0,
2011-12-18, 01:50:04,VALID,997.836,VALID,0,VALID,92.8906,VALID,0,VALID,23.8573,VALID,103,VALID,0,
2011-12-18, 01:51:04,VALID,997.851,VALID,0,VALID,92.9059,VALID,0,VALID,23.8378,VALID,103,VALID,0.251563,
2011-12-18, 01:52:04,VALID,997.876,VALID,0,VALID,92.944,VALID,0,VALID,23.8183,VALID,77,VALID,0.604688,
2011-12-18, 01:53:04,VALID,997.837,VALID,0,VALID,92.9211,VALID,0,VALID,23.8183,VALID,36,VALID,0.483594,
2011-12-18, 01:54:04,VALID,997.862,VALID,0,VALID,92.9517,VALID,0,VALID,23.8183,VALID,36,VALID,0.497266,
2011-12-18, 01:55:04,VALID,997.854,VALID,0,VALID,92.9974,VALID,0,VALID,23.7988,VALID,36,VALID,0.458984,
2011-12-18, 01:56:04,VALID,997.839,VALID,0,VALID,93.0356,VALID,0,VALID,23.8183,VALID,36,VALID,0.470313,
2011-12-18, 01:57:04,VALID,997.857,VALID,0,VALID,93.0585,VALID,0,VALID,23.7988,VALID,36,VALID,0.453516,
2011-12-18, 01:58:04,VALID,997.807,VALID,0,VALID,93.0814,VALID,0,VALID,23.7988,VALID,36,VALID,0.370703,
2011-12-18, 01:59:04,VALID,997.778,VALID,0,VALID,93.1119,VALID,0,VALID,23.7988,VALID,36,VALID,0.240234,
2011-12-18, 02:00:04,VALID,997.772,VALID,0,VALID,93.0966,VALID,0,VALID,23.7988,VALID,36,VALID,0,
2011-12-18, 02:01:04,VALID,997.75,VALID,0,VALID,93.0432,VALID,0,VALID,23.7988,VALID,36,VALID,0,
2011-12-18, 02:02:04,VALID,997.725,VALID,0,VALID,93.0432,VALID,0,VALID,23.7793,VALID,36,VALID,0,
2011-12-18, 02:03:04,VALID,997.752,VALID,0,VALID,93.0585,VALID,0,VALID,23.7597,VALID,36,VALID,0,
2011-12-18, 02:04:04,VALID,997.725,VALID,0,VALID,93.0508,VALID,0,VALID,23.7402,VALID,36,VALID,0,
2011-12-18, 02:05:04,VALID,997.719,VALID,0,VALID,93.0432,VALID,0,VALID,23.7402,VALID,36,VALID,0,
2011-12-18, 02:06:04,VALID,997.759,VALID,0,VALID,93.0508,VALID,0,VALID,23.7207,VALID,36,VALID,0,
2011-12-18, 02:07:04,VALID,997.742,VALID,0,VALID,93.1424,VALID,0,VALID,23.7207,VALID,36,VALID,0,
2011-12-18, 02:08:04,VALID,997.788,VALID,0,VALID,93.2111,VALID,0,VALID,23.7402,VALID,36,VALID,0,
2011-12-18, 02:09:04,VALID,997.793,VALID,0,VALID,93.2492,VALID,0,VALID,23.7597,VALID,36,VALID,0,
2011-12-18, 02:10:04,VALID,997.776,VALID,0,VALID,93.3103,VALID,0,VALID,23.7597,VALID,36,VALID,0,
2011-12-18, 02:11:04,VALID,997.832,VALID,0,VALID,93.3255,VALID,0,VALID,23.7597,VALID,36,VALID,0,
2011-12-18, 02:12:04,VALID,997.823,VALID,0,VALID,93.3484,VALID,0,VALID,23.7597,VALID,36,VALID,0,
2011-12-18, 02:13:04,VALID,997.82,VALID,0,VALID,93.3866,VALID,0,VALID,23.7597,VALID,36,VALID,0,
2011-12-18, 02:14:04,VALID,997.852,VALID,0,VALID,93.4018,VALID,0,VALID,23.7402,VALID,36,VALID,0,
2011-12-18, 02:15:04,VALID,997.809,VALID,0,VALID,93.4018,VALID,0,VALID,23.7597,VALID,36,VALID,0,
2011-12-18, 02:16:04,VALID,997.824,VALID,0,VALID,93.4552,VALID,0,VALID,23.7597,VALID,36,VALID,0.09375,
2011-12-18, 02:17:04,VALID,997.821,VALID,0,VALID,93.4857,VALID,0,VALID,23.7793,VALID,36,VALID,0,
2011-12-18, 02:18:04,VALID,997.77,VALID,0,VALID,93.501,VALID,0,VALID,23.7988,VALID,36,VALID,0.365625,
2011-12-18, 02:19:04,VALID,997.77,VALID,0,VALID,93.562,VALID,0,VALID,23.8183,VALID,57,VALID,0.642578,
2011-12-18, 02:20:04,VALID,997.761,VALID,0,VALID,93.5544,VALID,0,VALID,23.8573,VALID,57,VALID,0.059375,
2011-12-18, 02:21:04,VALID,997.766,VALID,0,VALID,93.5544,VALID,0,VALID,23.8768,VALID,57,VALID,0,
2011-12-18, 02:22:04,VALID,997.739,VALID,0,VALID,93.5163,VALID,0,VALID,23.8768,VALID,57,VALID,0.00429688,
2011-12-18, 02:23:04,VALID,997.741,VALID,0,VALID,93.4934,VALID,0,VALID,23.8768,VALID,57,VALID,0,
2011-12-18, 02:24:04,VALID,997.758,VALID,0,VALID,93.44,VALID,0,VALID,23.8768,VALID,57,VALID,0,
2011-12-18, 02:25:04,VALID,997.747,VALID,0,VALID,93.3866,VALID,0.104696,VALID,23.875,VALID,57,VALID,0,
2011-12-18, 02:26:04,VALID,997.752,VALID,0,VALID,93.3713,VALID,0.104696,VALID,23.875,VALID,57,VALID,0,
2011-12-18, 02:27:04,VALID,997.753,VALID,0,VALID,93.3255,VALID,0.104696,VALID,23.875,VALID,57,VALID,0,
2011-12-18, 02:28:04,VALID,997.771,VALID,0,VALID,93.3103,VALID,0,VALID,23.875,VALID,57,VALID,0,
2011-12-18, 02:29:04,VALID,997.78,VALID,0,VALID,93.3026,VALID,0.104696,VALID,23.875,VALID,57,VALID,0,
2011-12-18, 02:30:04,VALID,997.758,VALID,0,VALID,93.2797,VALID,0.104696,VALID,23.8555,VALID,57,VALID,0,
2011-12-18, 02:31:04,VALID,997.76,VALID,0,VALID,93.2645,VALID,0.104696,VALID,23.8555,VALID,57,VALID,0,
2011-12-18, 02:32:04,VALID,997.758,VALID,0,VALID,93.2492,VALID,0.104696,VALID,23.836,VALID,57,VALID,0,
2011-12-18, 02:33:04,VALID,997.725,VALID,0,VALID,93.2416,VALID,0,VALID,23.8165,VALID,57,VALID,0,
2011-12-18, 02:34:04,VALID,997.761,VALID,0,VALID,93.295,VALID,0.104696,VALID,23.8165,VALID,57,VALID,0,
2011-12-18, 02:35:04,VALID,997.718,VALID,0,VALID,93.3255,VALID,0,VALID,23.8165,VALID,57,VALID,0.423438,
2011-12-18, 02:36:04,VALID,997.739,VALID,0,VALID,93.3255,VALID,0,VALID,23.836,VALID,57,VALID,0.504687,
2011-12-18, 02:37:04,VALID,997.751,VALID,0,VALID,93.4094,VALID,0.104696,VALID,23.875,VALID,57,VALID,0.747656,
2011-12-18, 02:38:04,VALID,997.764,VALID,0,VALID,93.4552,VALID,0.104696,VALID,23.8945,VALID,57,VALID,0.569922,
2011-12-18, 02:39:04,VALID,997.747,VALID,0,VALID,93.4705,VALID,0,VALID,23.914,VALID,57,VALID,0.525,
2011-12-18, 02:40:04,VALID,997.74,VALID,0,VALID,93.4781,VALID,0,VALID,23.9159,VALID,57,VALID,0.44375,
2011-12-18, 02:41:04,VALID,997.752,VALID,0,VALID,93.4628,VALID,0,VALID,23.8963,VALID,57,VALID,0.357422,
2011-12-18, 02:42:04,VALID,997.743,VALID,0,VALID,93.4476,VALID,0,VALID,23.8963,VALID,57,VALID,0.335938,
2011-12-18, 02:43:04,VALID,997.741,VALID,0,VALID,93.4476,VALID,0,VALID,23.8768,VALID,57,VALID,0.238281,
2011-12-18, 02:44:04,VALID,997.724,VALID,0,VALID,93.44,VALID,0,VALID,23.8573,VALID,57,VALID,0.188672,
2011-12-18, 02:45:04,VALID,997.724,VALID,0,VALID,93.4628,VALID,0,VALID,23.8378,VALID,57,VALID,0.189844,
2011-12-18, 02:46:04,VALID,997.73,VALID,0,VALID,93.4857,VALID,0,VALID,23.8591,VALID,57,VALID,0.207031,
2011-12-18, 02:47:04,VALID,997.715,VALID,0,VALID,93.4934,VALID,0,VALID,23.8378,VALID,57,VALID,0.0507813,
2011-12-18, 02:48:04,VALID,997.715,VALID,0,VALID,93.501,VALID,0,VALID,23.8378,VALID,57,VALID,0,
2011-12-18, 02:49:04,VALID,997.694,VALID,0,VALID,93.5086,VALID,0,VALID,23.8183,VALID,57,VALID,0,
2011-12-18, 02:50:04,VALID,997.722,VALID,0,VALID,93.5315,VALID,0,VALID,23.7988,VALID,57,VALID,0,
2011-12-18, 02:51:04,VALID,997.708,VALID,0,VALID,93.5391,VALID,0,VALID,23.8183,VALID,57,VALID,0,
2011-12-18, 02:52:04,VALID,997.742,VALID,0,VALID,93.5773,VALID,0,VALID,23.7988,VALID,57,VALID,0,
2011-12-18, 02:53:04,VALID,997.681,VALID,0,VALID,93.6002,VALID,0,VALID,23.8006,VALID,57,VALID,0,
2011-12-18, 02:54:04,VALID,997.696,VALID,0,VALID,93.646,VALID,0,VALID,23.8006,VALID,57,VALID,0,
2011-12-18, 02:55:04,VALID,997.706,VALID,0,VALID,93.6841,VALID,0,VALID,23.7988,VALID,57,VALID,0,
2011-12-18, 02:56:04,VALID,997.709,VALID,0,VALID,93.707,VALID,0,VALID,23.8201,VALID,57,VALID,0,
2011-12-18, 02:57:04,VALID,997.65,VALID,0,VALID,93.7299,VALID,0,VALID,23.7988,VALID,57,VALID,0,
2011-12-18, 02:58:04,VALID,997.67,VALID,0,VALID,93.7528,VALID,0,VALID,23.7988,VALID,57,VALID,0,
2011-12-18, 02:59:04,VALID,997.649,VALID,0,VALID,93.7909,VALID,0,VALID,23.7793,VALID,57,VALID,0,
2011-12-18, 03:00:04,VALID,997.673,VALID,0,VALID,93.7909,VALID,0,VALID,23.7988,VALID,57,VALID,0,
2011-12-18, 03:01:04,VALID,997.7,VALID,0,VALID,93.7985,VALID,0,VALID,23.7793,VALID,57,VALID,0,
2011-12-18, 03:02:04,VALID,997.698,VALID,0,VALID,93.8062,VALID,0,VALID,23.7793,VALID,57,VALID,0,
2011-12-18, 03:03:04,VALID,997.718,VALID,0,VALID,93.8138,VALID,0,VALID,23.7402,VALID,57,VALID,0,
2011-12-18, 03:04:04,VALID,997.74,VALID,0,VALID,93.8138,VALID,0,VALID,23.7597,VALID,57,VALID,0,
2011-12-18, 03:05:04,VALID,997.752,VALID,0,VALID,93.8367,VALID,0,VALID,23.742,VALID,57,VALID,0,
2011-12-18, 03:06:04,VALID,997.732,VALID,0,VALID,93.8291,VALID,0,VALID,23.7402,VALID,57,VALID,0.453906,
2011-12-18, 03:07:04,VALID,997.745,VALID,0,VALID,93.8138,VALID,0,VALID,23.7402,VALID,61,VALID,0.642578,
2011-12-18, 03:08:04,VALID,997.753,VALID,0,VALID,93.8062,VALID,0,VALID,23.7402,VALID,97,VALID,0.839063,
2011-12-18, 03:09:04,VALID,997.77,VALID,0,VALID,93.7223,VALID,0,VALID,23.7811,VALID,111,VALID,1.00937,
2011-12-18, 03:10:04,VALID,997.75,VALID,0,VALID,93.5849,VALID,0.104696,VALID,23.7775,VALID,111,VALID,0.789063,
2011-12-18, 03:11:04,VALID,997.759,VALID,0,VALID,93.4552,VALID,0.104696,VALID,23.797,VALID,111,VALID,0.860937,
2011-12-18, 03:12:04,VALID,997.763,VALID,0,VALID,93.295,VALID,0.104696,VALID,23.797,VALID,111,VALID,0.773828,
2011-12-18, 03:13:04,VALID,997.752,VALID,0,VALID,93.1271,VALID,0,VALID,23.797,VALID,111,VALID,0.705469,
2011-12-18, 03:14:04,VALID,997.725,VALID,0,VALID,93.0356,VALID,0.104696,VALID,23.797,VALID,111,VALID,0.521484,
2011-12-18, 03:15:04,VALID,997.736,VALID,0,VALID,92.9593,VALID,0.104696,VALID,23.797,VALID,111,VALID,0.583594,
2011-12-18, 03:16:04,VALID,997.752,VALID,0,VALID,92.8983,VALID,0.104696,VALID,23.7775,VALID,111,VALID,0.653906,
2011-12-18, 03:17:04,VALID,997.738,VALID,0,VALID,92.8067,VALID,0.104696,VALID,23.7988,VALID,111,VALID,0.525,
2011-12-18, 03:18:04,VALID,997.758,VALID,0,VALID,92.7991,VALID,0,VALID,23.7775,VALID,111,VALID,0.505469,
2011-12-18, 03:19:04,VALID,997.762,VALID,0,VALID,92.7762,VALID,0,VALID,23.7775,VALID,111,VALID,0.54375,
2011-12-18, 03:20:04,VALID,997.809,VALID,0,VALID,92.7533,VALID,0,VALID,23.7775,VALID,111,VALID,0.419531,
2011-12-18, 03:21:04,VALID,997.799,VALID,0,VALID,92.7991,VALID,0.104696,VALID,23.7775,VALID,111,VALID,0.437109,
2011-12-18, 03:22:04,VALID,997.782,VALID,0,VALID,92.822,VALID,0,VALID,23.7775,VALID,111,VALID,0.647266,
2011-12-18, 03:23:04,VALID,997.758,VALID,0,VALID,92.8296,VALID,0.104696,VALID,23.8183,VALID,111,VALID,0.480469,
2011-12-18, 03:24:04,VALID,997.791,VALID,0,VALID,92.8143,VALID,0,VALID,23.797,VALID,111,VALID,0.370313,
2011-12-18, 03:25:04,VALID,997.755,VALID,0,VALID,92.8067,VALID,0,VALID,23.7793,VALID,111,VALID,0.196094,
2011-12-18, 03:26:04,VALID,997.773,VALID,0,VALID,92.7762,VALID,0,VALID,23.7793,VALID,111,VALID,0.104687,
2011-12-18, 03:27:04,VALID,997.734,VALID,0,VALID,92.7914,VALID,0,VALID,23.7597,VALID,111,VALID,0,
2011-12-18, 03:28:04,VALID,997.764,VALID,0,VALID,92.7685,VALID,0,VALID,23.7597,VALID,111,VALID,0,
2011-12-18, 03:29:04,VALID,997.729,VALID,0,VALID,92.7685,VALID,0,VALID,23.7616,VALID,111,VALID,0,
2011-12-18, 03:30:04,VALID,997.721,VALID,0,VALID,92.7685,VALID,0,VALID,23.7207,VALID,111,VALID,0,
2011-12-18, 03:31:04,VALID,997.746,VALID,0,VALID,92.7838,VALID,0,VALID,23.7012,VALID,111,VALID,0,
2011-12-18, 03:32:04,VALID,997.74,VALID,0,VALID,92.7457,VALID,0,VALID,23.6622,VALID,111,VALID,0,
2011-12-18, 03:33:04,VALID,997.745,VALID,0,VALID,92.7762,VALID,0,VALID,23.6622,VALID,111,VALID,0.221875,
2011-12-18, 03:34:04,VALID,997.743,VALID,0,VALID,92.8296,VALID,0,VALID,23.6622,VALID,111,VALID,0,
2011-12-18, 03:35:04,VALID,997.771,VALID,0,VALID,92.8677,VALID,0,VALID,23.6427,VALID,111,VALID,0,
2011-12-18, 03:36:04,VALID,997.732,VALID,0,VALID,92.8906,VALID,0,VALID,23.6232,VALID,111,VALID,0.142578,
2011-12-18, 03:37:04,VALID,997.735,VALID,0,VALID,92.8906,VALID,0,VALID,23.6232,VALID,111,VALID,0.236328,
2011-12-18, 03:38:04,VALID,997.697,VALID,0,VALID,92.883,VALID,0,VALID,23.6036,VALID,111,VALID,0.400781,
2011-12-18, 03:39:04,VALID,997.655,VALID,0,VALID,92.8677,VALID,0,VALID,23.625,VALID,111,VALID,0.228125,
2011-12-18, 03:40:04,VALID,997.669,VALID,0,VALID,92.8296,VALID,0,VALID,23.6036,VALID,111,VALID,0,
2011-12-18, 03:41:04,VALID,997.627,VALID,0,VALID,92.8372,VALID,0,VALID,23.625,VALID,111,VALID,0,
2011-12-18, 03:42:04,VALID,997.619,VALID,0,VALID,92.8143,VALID,0,VALID,23.5841,VALID,111,VALID,0,
2011-12-18, 03:43:04,VALID,997.644,VALID,0,VALID,92.7533,VALID,0,VALID,23.5841,VALID,134,VALID,0,
2011-12-18, 03:44:04,VALID,997.654,VALID,0,VALID,92.616,VALID,0,VALID,23.6036,VALID,143,VALID,0,
2011-12-18, 03:45:04,VALID,997.647,VALID,0,VALID,92.4328,VALID,0,VALID,23.6036,VALID,143,VALID,0,
2011-12-18, 03:46:04,VALID,997.656,VALID,0,VALID,92.2116,VALID,0,VALID,23.6445,VALID,143,VALID,0,
2011-12-18, 03:47:04,VALID,997.704,VALID,0,VALID,91.9827,VALID,0,VALID,23.6445,VALID,143,VALID,0,
2011-12-18, 03:48:04,VALID,997.695,VALID,0,VALID,91.8377,VALID,0,VALID,23.6036,VALID,143,VALID,0,
2011-12-18, 03:49:04,VALID,997.717,VALID,0,VALID,91.7462,VALID,0,VALID,23.6036,VALID,143,VALID,0,